Regional Weather Roundup
Issued by NWS

Home | Current Version | Previous Version | Graphics & Text | Print | Product List | Glossary On
Versions: 1 2 3 4 5 6 7 8 9 10 11 12 13 14 15 16 17 18 19 20 21 22 23 24 25 26 27 28 29 30 31 32 33 34 35 36 37 38 39 40 41 42 43 44 45 46 47 48 49 50
000
ASUS45 KBOU 101910
RWRCO

WEATHER ROUNDUP FOR COLORADO
NATIONAL WEATHER SERVICE DENVER/BOULDER CO
100 PM MDT THU JUL 10 2014

NOTE: "FAIR" INDICATES FEW OR NO CLOUDS BELOW 12000 FEET WITH NO
SIGNIFICANT WEATHER AND/OR OBSTRUCTIONS TO VISIBILITY.

COZ001>005-013-030-031-102000-
...NORTHWEST COLORADO...

CITY           SKY/WX    TMP DP  RH WIND       PRES   REMARKS
CRAIG          PTSUNNY   79  51  37 S9G24     30.15F
HAYDEN         MOSUNNY   81  45  28 W16       30.17F
MEEKER         MOSUNNY   81  48  31 VRB5      30.15F
MOUNT WERNER   MOSUNNY   64  36  34 SW7       30.52S
STEAMBOAT SPGS MOSUNNY   81  46  29 SW10      30.20F
WALDEN         MOSUNNY   73  39  29 S12G18    30.28F
$$

COZ006>008-011-102000-
...WEST CENTRAL VALLEYS...

CITY           SKY/WX    TMP DP  RH WIND       PRES   REMARKS
GRAND JUNCTION MOSUNNY   86  48  26 W7        30.05F
MONTROSE       SUNNY     88  47  24 N10       30.12F
EAGLE          NOT AVBL
RIFLE          MOSUNNY   86  46  24 VRB7      30.09F
DELTA          SUNNY     90  45  20 E6        30.08F
NUCLA          SUNNY     82  46  28 N7        30.18F
$$

COZ017>023-064>068-102000-
...SOUTHWEST COLORADO...

CITY           SKY/WX    TMP DP  RH WIND       PRES   REMARKS
DURANGO        MOSUNNY   82  47  29 SW12      30.20F
CORTEZ         MOSUNNY   81  50  33 W6        30.16F
PAGOSA SPRINGS MOSUNNY   78  43  29 S9        30.27F
TELLURIDE      CLOUDY    64  48  55 W10       30.39R THUNDER
WOLF CREEK PAS NOT AVBL
$$

COZ009-010-012-014-032>034-037-058>063-102000-
...CENTRAL COLORADO...

CITY           SKY/WX    TMP DP  RH WIND       PRES   REMARKS
ASPEN          MOSUNNY   78  41  26 NW8       30.25F
BUENA VISTA    MOSUNNY   82  33  17 S17G28    30.25F
COPPER MTN     PTSUNNY   61  36  39 W21       30.59F
BERTHOUD PASS  PTSUNNY   52  36  54 CALM      30.66S
COTTONWOOD PAS PTSUNNY   72  28  20 SE7       30.42F
GUNNISON       NOT AVBL
KREMMLING      SUNNY     81  34  18 S5        30.24F
LEADVILLE      PTSUNNY   73  35  25 NW12G17   30.39F
MONARCH PASS   MOSUNNY   63  39  42 W10       30.71F
SALIDA         MOSUNNY   87  32  14 W7        30.29F
SUNLIGHT       CLOUDY    63  46  55 CALM      30.53F
WILKERSON PASS PTSUNNY   64  32  29 CALM      30.57F
$$

COZ069>075-102000-
...SAN LUIS VALLEY/SANGRE DE CRISTO MOUNTAINS...

CITY           SKY/WX    TMP DP  RH WIND       PRES   REMARKS
ALAMOSA        SUNNY     79  41  25 VRB3      30.24F
LA VETA PASS   MOSUNNY   66  41  39 CALM      30.47F
SAGUACHE       NOT AVBL
$$

COZ035-036-038>040-102000-
...NORTHERN COLORADO FRONT RANGE...

CITY           SKY/WX    TMP DP  RH WIND       PRES   REMARKS
DENVER INTL AP MOSUNNY   91  42  18 E13G21    30.05F
DMNS CITY PARK   N/A     91  42  18 E12G17    30.03F
AURORA         MOSUNNY   88  45  22 SE10      30.07F
FRONT RANGE AP NOT AVBL
ERIE MUNI ARPT MOSUNNY   93  37  13 S7        30.02F
BOULDER MUN AP MOSUNNY   90  39  17 E6        30.03F
CENTENNIAL     MOSUNNY   90  39  16 NE12G20   30.08F
BROOMFIELD     MOSUNNY   91  39  16 SE8       30.07F
FORT COLLINS   MOSUNNY   91  52  25 SE10      30.00F
LONGMONT       MOSUNNY   96  41  15 SE9G18    30.02F
$$

COZ041-046-047-076>085-087-088-102000-
...PIKES PEAK/PALMER DIVIDE AND SOUTHERN FOOTHILLS...

CITY           SKY/WX    TMP DP  RH WIND       PRES   REMARKS
COLO. SPRINGS  MOSUNNY   87  44  22 E8        30.13F
A. F. ACADEMY  PTSUNNY   85  45  24 SW13      30.14F
ELLICOTT       NOT AVBL
FALCON         MOSUNNY   86  36  17 S5        30.19F
FORT CARSON    MOSUNNY   88  47  24 E14G20    30.09F
LIMON          SUNNY     87  50  27 S9        30.07F
MONUMENT HILL  SUNNY     84  36  17 SW6       30.18F
TRINIDAD       SUNNY     90  38  16 VRB5      30.08F
$$

COZ042>045-048>051-090-091-102000-
...NORTHEAST COLORADO...

CITY           SKY/WX    TMP DP  RH WIND       PRES   REMARKS
GREELEY ARPT   SUNNY     91  54  27 SE7       30.01F
AKRON          SUNNY     89  52  28 SE16G24   30.01F
BURLINGTON     SUNNY     86  62  44 SE9       30.00F
WRAY           SUNNY     93  55  27 S8G16     29.96F
STERLING       SUNNY     95  55  26 S7        29.94F
HOLYOKE        SUNNY     88  61  40 SW9       29.96F
FORT MORGAN    SUNNY     92  49  22 SE7       30.00F
$$

COZ086-089-092>099-102000-
...SOUTHEAST COLORADO...

CITY           SKY/WX    TMP DP  RH WIND       PRES   REMARKS
PUEBLO         SUNNY     90  44  20 VRB3      30.00F
LA JUNTA       SUNNY     95  45  17 W8        29.97F
LAMAR          SUNNY     98  45  16 S9G18     29.92F
SPRINGFIELD      N/A     95  47  19 S16G28    29.99F
$$


USA.gov is the U.S. government's official web portal to all federal, state and local government web resources and services.